Regional Weather Roundup
Issued by NWS

Home | Current Version | Previous Version | Graphics & Text | Print | Product List | Glossary Off
Versions: 1 2 3 4 5 6 7 8 9 10 11 12 13 14 15 16 17 18 19 20 21 22 23 24 25 26 27 28 29 30 31 32 33 34 35 36 37 38 39 40 41 42 43 44 45 46 47 48 49 50

000
ASUS43 KDMX 312307
RWRIA

WEATHER ROUNDUP FOR IOWA
NATIONAL WEATHER SERVICE DES MOINES IA
600 PM CDT FRI JUL 31 2015

NOTE: "FAIR" INDICATES FEW OR NO CLOUDS BELOW 12,000 FEET WITH NO
SIGNIFICANT WEATHER AND/OR OBSTRUCTIONS TO VISIBILITY.

* - THESE STATIONS ARE NOT NWS STATIONS...THUS NOT UNDER NWS
QUALITY CONTROL.  THEY ALSO DO NOT REPORT WEATHER SUCH
AS PRECIPITATION OR FOG.

IAZ001>003-012>014-020>022-031>034-043>046-010000-
   NORTHWEST IOWA

CITY           SKY/WX    TMP DP  RH WIND       PRES   REMARKS
CARROLL *      SUNNY     82  66  57 NE8       30.06F HX  85
CHEROKEE *     SUNNY     82  59  44 S3        30.07F HX  82
DENISON *      MOSUNNY   82  73  74 NE6       30.04S HX  88
LE MARS *      SUNNY     82  63  51 SE7       30.07F HX  83
ORANGE CITY *  SUNNY     82  57  42 S3        30.08F HX  82
SHELDON *      SUNNY     82  61  47 E3        30.07S HX  83
SIOUX CITY     MOSUNNY   86  69  56 E9        30.05S HX  90
SPENCER        SUNNY     85  53  33 NE5       30.08S HX  83
STORM LAKE *   SUNNY     81  63  54 CALM      30.09F HX  82
$$

IAZ055>058-069>071-079>083-090>094-010000-
   SOUTHWEST IOWA

CITY           SKY/WX    TMP DP  RH WIND       PRES   REMARKS
ATLANTIC *     SUNNY     84  75  74 N3        30.04S HX  92
AUDUBON *      SUNNY     86  73  66 CALM      30.07S HX  93
CLARINDA *     SUNNY     84  77  79 SW3       30.05S HX  94
COUNCIL BLFS * SUNNY     84  75  74 CALM      30.05S HX  92
CRESTON *      CLOUDY    72  64  78 SW12      30.08R
HARLAN  *      SUNNY     82  79  89 NE5       30.08S HX  93
LAMONI         MOSUNNY   85  72  65 CALM      30.05F HX  91
RED OAK *      DRIZZLE   77  64  65 W6G16     30.05R
SHENANDOAH *   SUNNY     86  77  74 CALM      30.04S HX  97
$$

IAZ047>049-059>061-072>074-084-010000-
   CENTRAL IOWA

CITY           SKY/WX    TMP DP  RH WIND       PRES   REMARKS
AMES           SUNNY     84  63  49 NE8       30.05F HX  85
ANKENY *       MOSUNNY   82  66  57 NE7       30.03F HX  85
CHARITON *     MOSUNNY   82  72  69 NE8       30.05S HX  87
DES MOINES     MOSUNNY   87  59  38 E8        30.03F HX  86
GRINNELL*      SUNNY     81  66  61 N6        30.05F HX  83
KNOXVILLE *    SUNNY     84  64  51 NE6       30.03F HX  86
MARSHALLTOWN   SUNNY     82  62  50 N6        30.05F HX  83
PELLA *        MOSUNNY   84  68  58 CALM      30.04F HX  87
PERRY *          N/A     84  64  51 NE5       30.05F HX  86
$$

IAZ004>006-015-016-023>025-035-036-010000-
   NORTH CENTRAL IOWA

CITY           SKY/WX    TMP DP  RH WIND       PRES   REMARKS
ALGONA *       SUNNY     82  55  39 NW7       30.07F HX  82
CLARION *      SUNNY     81  59  47 NW7       30.06F HX  81
ESTHERVILLE    SUNNY     81  55  40 N8        30.07F HX  81
FORT DODGE *   SUNNY     81  61  50 CALM      30.07F HX  81
MASON CITY     SUNNY     81  58  45 NW9       30.07S HX  81
FOREST CITY *  SUNNY     77  55  47 W9        30.06F
IOWA FALLS *     N/A     81  55  41 NW3       30.07F HX  80
$$

IAZ007>011-017>019-026>030-037>042-050>054-066-010000-
   NORTHEAST IOWA

CITY           SKY/WX    TMP DP  RH WIND       PRES   REMARKS
CEDAR RAPIDS   SUNNY     81  61  50 NW12      30.03F HX  82
CHARLES CITY * SUNNY     79  59  50 NW12      30.05F HX  80
CLINTON *      SUNNY     81  57  44 W13       30.02F HX  81
DECORAH *      SUNNY     79  54  41 NW16G22   30.01F
DUBUQUE        SUNNY     80  54  40 NW15G23   30.01F HX  80
MONTICELLO *   SUNNY     81  57  44 W13G20    30.02S HX  81
OELWEIN *      SUNNY     79  57  47 NW10      30.04F HX  80
WATERLOO       SUNNY     81  57  43 NW12      30.03S HX  81
$$

IAZ064-065-067-068-078-010000-
   EAST CENTRAL IOWA

CITY           SKY/WX    TMP DP  RH WIND       PRES   REMARKS
DAVENPORT      SUNNY     82  59  45 NW9       30.01F HX  82
IOWA CITY      SUNNY     84  61  45 NW12      30.03F HX  84
MT. PLEASANT * SUNNY     88  55  33 N7        30.03S HX  86
MUSCATINE *    SUNNY     86  61  42 NW10G17   30.02S HX  86
QUAD CITIES    SUNNY     85  53  33 NW16G24   30.00F HX  83
$$

IAZ062-063-075>077-085>089-095>099-010000-
   SOUTHEAST IOWA

CITY           SKY/WX    TMP DP  RH WIND       PRES   REMARKS
BURLINGTON     SUNNY     85  66  53 NW6       30.02F HX  87
FAIRFIELD *    SUNNY     84  64  51 N7        30.04S HX  86
FORT MADISON * SUNNY     84  70  61 N6        30.03F HX  88
KEOKUK *       SUNNY     88  68  51 N7        30.01F HX  91
OSKALOOSA *    PTSUNNY   82  66  57 NW5       30.05S HX  85
CENTERVILLE *  MOSUNNY   82  72  69 NW3       30.06F HX  87
OTTUMWA        SUNNY     85  67  54 N8        30.02F HX  87
WASHINGTON *   SUNNY     84  64  51 NW7G13    30.04F HX  86
$$

ABBREVIATIONS USED IN REMARKS
   TC - TEMPERATURES IN CELSIUS
  WCI - WIND CHILL INDEX
   HX - HEAT INDEX
  VSB - VISIBILITY
$$




USA.gov is the U.S. government's official web portal to all federal, state and local government web resources and services.